Regional Weather Roundup
Issued by NWS Goodland, KS

Home | Current Version | Previous Version | Text Only | Print | Product List | Glossary Off
Versions: 1 2 3 4 5 6 7 8 9 10 11 12 13 14 15 16 17 18 19 20 21 22 23 24 25 26 27 28 29 30 31 32 33 34 35 36 37 38 39 40 41 42 43 44 45 46 47 48 49 50

000
ASUS43 KGLD 230459
RWRGLD

GOODLAND FORECAST AREA HOURLY WEATHER ROUNDUP
NATIONAL WEATHER SERVICE GOODLAND KS
1000 PM MST WED NOV 22 2017

...OFFICIAL OBSERVATIONS...

CITY           SKY/WX    TMP DP  RH WIND       PRES   REMARKS
GOODLAND KS    CLOUDY    44  34  67 W10       30.16F
HILL CITY KS   CLEAR     44  35  70 W6        30.09F
IMPERIAL NEB   CLOUDY    50  39  66 NW13      30.13R
MCCOOK NEB     CLOUDY    41  35  79 NW6       30.10R
AKRON CO       CLEAR     52  37  56 NW14      30.22S
BURLINGTON CO  CLOUDY    41  33  73 W8        30.20S
LIMON CO       CLOUDY    42  34  73 W13       30.27S
$$

...UNOFFICIAL OBSERVATIONS...

CITY           SKY/WX    TMP DP  RH WIND       PRES   REMARKS
LENORA KS        N/A     53  32  45 CALM        N/A
NORTON KS      CLEAR     39  28  65 SW9       30.07
SHARON SPRINGS   N/A     44  32  62 CALM        N/A
KIT CARSON CO    N/A     44  32  63 MISG        N/A
YUMA CO        FAIR      43  36  75 W9        30.18F
$$




USA.gov is the U.S. government's official web portal to all federal, state and local government web resources and services.